Probability
0 0 0 0 0 0 0 0 0 0 0 0 0 0 0 0 0 0 0 0 0 0 0 0 0 0 0 0 0 0 0 0 0 0 0 0 0 0 0 0 0 0 0
0 0 0 0 0 0 0 0 0 0 0 0 0 0 0 0 0 0 0 0 0 0 0 0 0 0 0 0 0 0 0 0 0 0 0 0 0 0 0 0 0 0 0
0 0 0 0 0 0 0 0 0 0 0 0 0 0 0 0 0 0 0 0 0 0 0 0 0 0 0 0 0 0 0 0 0 0 0 0 0 0 0 0 0 0 0
0 0 0 0 0 0 0 0 0 0 0 0 0 0 0 0 0 0 0 0 0 0 0 0 0 0 0 0 0 0 0 0 0 0 0 0 0 0 0 0 0 0 0
0 0 0 0 0 0 0 0 0 0 0 0 0 0 0 0 0 0 0 0 0 0 0 0 0 0 0 0 0 0 0 0 0 0 0 0 0 0 0 0 0 0 0
0 0 0 0 0 0 0 0 0 0 0 0 0 0 0 0 0 0 0 0 0 0 0 0 0 0 0 0 0 0 0 0 0 0 0 0 0 0 0 0 0 0 0
0 0 0 0 0 0 0 0 0 0 0 0 0 0 0 0 0 0 0 0 0 0 0 0 0 0 0 0 0 0 0 0 0 0 0 0 0 0 0 0 0 0 0
0 0 0 0 0 0 0 0 0 0 0 0 0 0 0 0 0 0 0 0 0 0 0 0 0 0 0 0 0 0 0 0 0 0 0 0 0 0 0 0 0 0 0
0 0 0 0 0 0 0 0 0 0 0 0 0 0 0 0 0 0 0 0 0 0 0 0 0 0 0 0 0 0 0 0 0 0 0 0 0 0 0 0 0 0 0
0 0 0 0 0 0 0 0 0 0 0 0 0 0 0 0 0 0 0 0 0 0 0 0 0 0 0 0 0 0 0 0 0 0 0 0 0 0 0 0 0 0 0
0 0 0 0 0 0 0 0 0 0 0 0 0 0 0 0 0 0 0 0 0 0 0 0 0 0 0 0 0 0 0 0 0 0 0 0 0 0 0 0 0 0 0
0 0 0 0 0 0 0 0 0 0 0 0 0 0 0 0 0 0 0 0 0 0 0 0 0 0 0 0 0 0 0 0 0 0 0 0 0 0 0 0 0 0 0
0 0 0 0 0 0 0 0 0 0 0 0 0 0 0 0 0 0 0 0 0 0 0 0 0 0 0 0 0 0 0 0 0 0 0 0 0 0 0 0 0 0 0
0 0 0 0 0 0 0 0 0 0 0 0 0 0 0 0 0 0 0 0 0 0 0 0 0 0 0 0 0 0 0 0 0 0 0 0 0 0 0 0 0 0 0
0 0 0 0 0 0 0 0 0 0 0 0 0 0 0 0 0 0 0 0 0 0 0 0 0 0 0 0 0 0 0 0 0 0 0 0 0 0 0 0 0 0 0
0 0 0 0 0 0 0 0 0 0 0 0 0 0 0 0 0 0 0 0 0 0 0 0 0 0 0 0 0 0 0 0 0 0 0 0 0 0 0 0 0 0 0
0 0 0 0 0 0 0 0 0 0 0 0 0 0 0 0 0 0 0 0 0 0 0 0 0 0 0 0 0 0 0 0 0 0 0 0 0 0 0 0 0 0 0
0 0 0 0 0 0 0 0 0 0 0 0 0 0 0 0 0 0 0 0 0 0 0 0 0 0 0 0 0 0 0 0 0 0 0 0 0 0 0 0 0 0 0
0 0 0 0 0 0 0 0 0 0 0 0 0 0 0 0 0 0 0 0 0 0 0 0 0 0 0 0 0 0 0 0 0 0 0 0 0 0 0 0 0 0 0
0 0 0 0 0 0 0 0 0 0 0 0 0 0 0 0 0 0 0 0 0 0 0 0 0 0 0 0 0 0 0 0 0 0 0 0 0 0 0 0 0 0 0
0 0 0 0 0 0 0 0 0 0 0 0 0 0 0 0 0 0 0 0 0 0 0 0 0 0 0 0 0 0 0 0 0 0 0 0 0 0 0 0 0 0 0
0 0 0 0 0 0 0 0 0 0 0 0 0 0 0 0 0 0 0 0 0 0 0 0 0 0 0 0 0 0 0 0 0 0 0 0 0 0 0 0 0 0 0
0 0 0 0 0 0 0 0 0 0 0 0 0 0 0 0 0 0 0 0 0 0 0 0 0 0 0 0 0 0 0 0 0 0 0 0 0 0 0 0 0 0 0
0 0 0 0 0 0 0 0 0 0 0 0 0 0 0 0 0 0 0 0 0 0 0 0 0 0 0 0 0 0 0 0 0 0 0 0 0 0 0 0 0 0 0
0 0 0 0 0 0 0 0 0 0 0 0 0 0 0 0 0 0 0 0 0 0 0 0 0 0 0 0 0 0 0 0 0 0 0 0 0 0 0 0 0 0 0
0 0 0 0 0 0 0 0 0 0 0 0 0 0 0 0 0 0 0 0 0 0 0 0 0 0 0 0 0 0 0 0 0 0 0 0 0 0 0 0 0 0 0
Wind_Speed
7 7 8 8 9 10 9 11 11 11 14 15 17 18 18 16 12 9 9 9 9 9 8 8 8 8 7 6 7 7 7 8 11 10 8 8 10 11 11 9 8 7 6
7 7 8 9 9 9 10 11 11 12 13 15 16 17 17 16 12 10 10 10 9 8 8 8 7 7 8 7 6 7 7 8 9 13 10 9 10 9 10 9 7 6 4
6 7 8 8 9 10 10 11 11 12 13 14 15 16 16 14 11 10 10 11 11 11 11 10 9 8 8 8 8 6 7 8 8 9 10 8 7 7 7 7 6 4 5
6 7 7 8 9 10 10 11 11 11 12 13 14 15 15 13 8 8 10 11 12 12 12 12 12 11 10 10 9 8 8 9 8 8 7 6 5 6 4 3 3 3 3
6 7 7 8 9 9 10 10 10 11 12 12 13 15 15 13 7 7 8 11 11 12 12 12 13 18 20 16 12 10 10 8 7 7 6 5 5 4 3 2 2 2 2
6 6 8 8 9 9 10 10 10 10 11 11 12 13 15 13 19 22 14 9 9 10 11 12 13 14 19 20 23 21 18 13 10 7 6 7 7 7 6 5 3 1 1
6 6 7 8 9 9 11 10 10 9 9 10 11 12 13 17 23 21 22 10 9 9 10 11 12 15 18 7 15 19 17 21 19 10 7 8 8 8 8 7 5 3 1
6 6 7 7 8 9 9 10 9 7 8 7 9 11 12 17 25 19 20 9 7 9 10 11 12 12 16 13 11 12 10 10 14 10 7 7 8 9 7 7 6 6 4
6 6 7 7 7 8 8 9 7 7 7 7 8 9 11 15 24 20 15 5 6 8 10 12 15 11 23 24 14 14 13 10 15 19 18 15 16 16 12 6 5 3 1
6 6 6 6 7 7 7 7 6 7 7 9 10 9 10 11 21 23 15 5 6 8 8 11 19 21 24 25 14 13 14 12 12 13 12 13 10 11 14 7 5 3 2
6 6 6 6 7 7 6 6 7 8 9 9 9 10 9 11 17 21 19 4 6 8 9 9 11 25 25 25 20 14 18 16 11 10 8 8 8 7 7 7 5 3 3
5 6 6 6 6 7 7 7 7 8 8 8 7 9 7 9 13 16 19 16 12 7 8 8 12 24 24 24 19 22 24 18 10 10 9 10 10 10 9 9 7 5 5
5 6 6 7 6 6 6 7 7 7 7 8 7 8 8 8 10 17 15 15 16 7 6 16 20 23 20 15 22 25 19 12 11 11 11 10 9 9 8 8 7 6 5
5 6 6 6 7 7 6 6 6 7 8 7 6 7 8 8 8 6 4 5 9 7 5 11 17 19 16 17 17 14 11 12 12 10 10 10 9 9 9 9 7 7 4
5 5 5 6 6 6 7 5 7 6 10 10 7 7 8 9 12 18 11 6 4 5 5 5 6 7 9 9 10 10 10 11 11 11 11 11 11 11 10 9 8 7 6
4 5 4 5 5 6 6 8 11 12 17 17 17 16 12 16 20 19 18 16 16 15 7 4 5 6 7 8 9 9 9 10 11 11 11 11 11 10 10 8 8 8 7
4 5 4 5 5 6 6 7 9 11 15 16 19 21 20 20 20 20 18 17 15 12 4 3 4 4 5 6 6 6 7 8 8 9 10 10 10 10 10 10 10 8 8
4 5 5 4 4 4 5 6 7 8 9 9 13 19 21 21 20 20 19 13 8 6 2 3 3 4 4 4 5 5 6 7 7 8 9 9 10 10 10 11 10 11 9
3 3 4 3 3 3 4 5 5 7 8 8 8 11 17 18 18 19 17 7 7 7 5 4 3 3 3 3 3 4 4 5 6 6 7 8 9 9 10 10 10 15 12
3 6 5 3 3 3 4 4 5 6 7 7 8 9 9 9 8 10 10 8 8 7 6 5 4 3 3 2 3 3 4 4 5 6 6 7 7 8 9 11 10 9 9
2 3 6 3 3 3 3 3 4 5 5 7 7 11 16 8 9 10 9 9 9 9 8 7 5 4 3 2 2 2 3 3 3 4 5 5 6 7 7 8 9 9 9
3 2 2 2 3 3 3 3 4 4 5 6 6 8 15 9 8 8 9 9 9 9 9 8 6 4 4 3 3 2 2 2 2 2 3 4 5 5 6 7 8 8 9
3 2 2 2 2 4 4 3 4 4 5 5 6 7 8 8 9 9 10 10 10 10 9 8 7 5 4 4 4 4 4 3 2 1 1 3 4 4 5 6 8 8 9
4 3 3 2 2 2 3 3 4 4 5 5 5 6 7 7 8 10 10 10 10 10 10 10 9 10 9 5 4 5 5 5 4 3 3 2 2 3 4 4 6 8 8
5 4 3 2 2 2 3 3 3 4 5 6 6 6 7 8 8 9 9 10 11 11 13 12 9 10 12 9 5 6 10 12 10 6 4 3 3 3 3 4 4 5 6
5 5 4 3 3 2 2 3 3 4 4 5 5 5 6 7 8 9 9 9 11 11 12 11 13 15 15 9 6 8 12 13 14 13 7 5 4 3 3 3 4 4 5
Wind_Direction
316 320 325 323 323 324 322 320 320 320 323 325 327 329 330 333 330 319 310 303 298 297 297 298 299 300 300 296 288 285 282 281 284 288 282 281 279 280 284 284 280 278 284
316 323 325 324 324 324 322 322 324 326 327 330 333 336 342 345 348 349 344 342 336 334 333 331 327 332 327 317 311 305 299 292 286 289 288 283 275 274 274 273 274 272 270
321 326 325 324 325 324 323 324 328 329 330 335 339 340 342 345 355 6 9 7 7 4 360 354 346 344 349 338 329 326 314 308 295 286 284 280 274 270 269 267 261 257 263
329 326 325 324 324 322 323 326 329 331 335 338 339 339 340 338 348 15 14 12 9 6 5 1 351 350 355 346 343 342 328 320 314 302 290 284 282 275 261 258 263 239 247
328 328 326 324 323 324 328 329 331 337 340 337 338 340 341 339 352 38 24 11 5 1 358 355 349 355 358 1 355 356 345 335 335 331 327 319 317 326 325 307 265 258 249
326 324 325 328 329 330 330 332 335 337 336 336 337 337 340 341 3 29 32 11 1 358 352 348 343 345 354 4 359 0 358 351 352 349 341 341 341 344 337 329 312 266 249
323 322 325 327 329 330 333 335 333 329 330 333 332 335 337 336 360 29 26 17 358 353 348 345 345 345 351 356 354 356 355 356 356 355 343 341 336 338 336 331 332 329 311
321 322 321 324 324 324 330 331 325 318 324 324 323 330 334 337 351 21 28 15 353 347 342 341 339 337 340 12 357 347 350 352 349 349 344 338 337 333 334 319 305 300 285
319 318 316 316 318 323 328 325 317 317 316 318 322 326 330 330 340 4 30 1 359 345 344 349 345 345 352 10 4 349 350 354 352 354 359 0 360 355 4 351 332 299 277
310 308 307 311 318 316 318 315 313 315 319 326 327 325 320 318 331 348 19 15 4 354 348 347 347 1 2 7 8 355 355 355 346 343 349 352 351 352 7 7 340 322 319
302 305 308 313 312 307 315 310 315 320 323 318 316 316 312 319 330 335 354 20 17 1 352 346 347 4 7 6 9 4 2 1 346 343 345 349 351 352 351 346 333 307 306
304 307 309 310 311 322 317 309 312 314 314 310 307 312 316 316 325 327 343 357 13 13 352 343 354 7 9 7 9 9 7 4 354 353 356 359 357 353 344 334 323 303 270
310 309 307 310 309 310 308 306 312 310 309 310 314 320 320 318 319 326 336 347 357 13 359 359 5 8 9 5 7 10 7 1 360 359 357 355 348 340 337 337 337 330 309
305 305 305 308 311 314 315 315 313 312 311 313 319 320 316 313 310 314 310 328 348 0 6 358 4 5 10 8 7 6 3 3 4 357 352 348 348 352 359 358 355 351 349
299 301 308 312 309 313 318 312 315 311 327 341 331 321 322 320 334 349 356 349 343 355 14 1 357 358 3 3 4 5 3 2 2 357 357 356 358 2 3 3 4 7 14
298 307 308 308 314 320 318 322 331 338 339 345 346 344 334 341 351 357 357 359 356 2 16 355 353 356 359 360 360 359 1 3 0 358 360 359 360 2 4 5 11 15 15
279 293 297 310 317 322 325 329 330 335 341 346 348 347 351 358 2 1 3 2 358 3 12 337 334 338 342 348 351 352 353 352 353 357 0 360 360 3 8 11 14 16 15
276 293 305 298 306 313 319 325 331 333 334 335 340 344 352 360 2 3 7 2 348 351 326 311 312 318 326 336 343 347 346 350 356 358 0 1 1 4 10 14 16 21 18
273 278 284 293 307 310 314 323 330 333 333 332 332 336 349 357 358 0 3 355 337 333 322 308 297 299 307 321 331 339 344 349 354 355 360 0 1 5 10 13 16 22 29
265 299 318 328 326 320 315 323 332 334 335 335 336 331 337 355 352 350 351 345 343 335 327 312 297 285 285 296 314 331 344 352 356 359 357 358 359 5 9 11 15 19 25
246 289 318 332 319 308 307 324 327 329 331 333 331 332 352 359 347 344 344 344 342 338 333 323 304 286 269 260 268 300 327 342 354 357 357 357 0 6 7 12 15 21 28
219 242 272 291 299 301 317 328 321 320 324 327 328 337 352 355 343 342 340 338 335 332 330 325 311 285 257 237 229 236 261 299 339 1 3 1 4 8 10 17 19 23 28
197 225 254 280 294 315 336 322 316 316 320 321 326 341 346 346 343 340 338 335 333 331 330 328 322 306 274 236 215 207 213 222 213 167 39 22 16 15 16 19 22 26 33
189 207 223 251 282 298 307 311 315 318 322 321 328 339 340 338 334 334 334 331 331 330 329 329 326 319 305 274 224 208 204 199 181 169 149 101 56 33 29 30 29 30 33
186 196 204 213 244 279 297 308 316 319 325 328 335 338 335 333 332 331 330 329 329 329 329 329 328 328 322 304 257 217 215 212 199 170 152 135 112 82 59 47 44 43 44
184 190 195 200 216 241 269 293 306 315 317 322 327 324 322 324 325 326 327 329 331 329 329 328 327 328 325 318 284 242 223 213 204 186 156 145 139 129 109 81 72 62 58